Theta_e
321 328 330 327 326 325 323 322 322 322 321 322 321 321 320 319 321 321 322 322 318 322 327 330 333 334 335 336 337 338 336 334 332 331 331 331 332 333 335 335 336 337 337 339 340 340 340 340 339 339 338 338 337 337 337 336 334 334 334 334 336 338 339 340 340 340 341 341 341 340 338 338 339 340 340 339 339 338 337 339 339 339 339 340 340 338
325 328 329 327 326 323 322 321 320 320 320 320 320 321 320 320 323 322 321 319 318 325 326 331 338 339 339 337 335 334 332 331 330 329 330 329 331 332 332 334 334 334 334 336 337 337 337 337 336 335 334 334 334 334 333 333 332 334 334 334 335 336 337 338 339 339 340 340 340 340 339 338 338 338 338 338 337 336 335 338 338 338 339 340 340 339
330 329 328 324 321 319 322 322 320 320 321 321 320 321 321 322 323 322 323 319 318 326 328 330 336 338 337 335 332 332 330 330 330 328 328 329 329 330 331 332 331 331 331 332 332 332 332 332 331 331 330 330 330 330 330 329 330 331 331 332 334 335 336 336 337 337 337 337 337 338 338 338 337 336 336 337 337 335 334 335 337 339 340 340 339 339
326 329 326 319 318 321 324 323 321 322 322 322 322 322 322 322 320 320 322 319 318 325 328 328 331 331 333 334 331 332 331 329 328 326 326 327 327 328 329 330 329 328 327 327 328 328 328 328 328 327 327 326 326 326 325 325 325 326 326 327 328 330 331 332 333 334 334 335 336 336 337 336 337 336 335 335 334 335 336 336 337 339 339 340 339 339
324 324 319 318 322 325 323 323 328 328 323 325 324 322 322 322 320 319 320 320 320 323 324 329 333 328 330 335 333 332 330 327 325 324 324 325 325 327 328 328 326 323 321 322 324 325 326 325 325 325 325 325 324 324 323 323 323 323 323 323 323 323 324 325 325 326 328 329 331 332 333 334 334 335 335 335 334 334 336 337 337 336 336 337 337 338
324 319 316 320 325 325 323 325 328 326 323 324 324 323 321 322 322 320 321 322 324 322 318 327 338 331 328 336 337 332 328 324 322 321 321 323 324 325 324 322 320 318 316 317 319 320 320 320 320 321 321 321 321 320 319 319 319 319 319 318 318 318 318 319 319 319 320 321 322 324 326 328 330 332 332 333 333 333 334 334 334 334 334 334 334 335
321 319 319 320 324 327 328 324 321 323 324 322 321 322 322 321 321 320 320 321 323 322 316 321 337 335 329 335 337 331 326 322 321 320 319 321 321 320 318 315 314 313 313 314 315 316 317 318 318 318 317 317 317 315 314 315 315 314 314 313 313 313 313 314 314 315 316 316 317 318 319 322 325 328 328 328 329 330 331 332 333 333 333 332 331 331
321 322 323 323 327 328 327 322 318 322 324 322 321 320 320 319 317 319 318 318 320 321 320 320 331 338 333 334 335 330 326 322 321 320 319 319 319 317 315 312 310 310 310 311 312 314 315 315 316 315 315 315 313 312 312 311 311 310 310 309 309 309 309 310 311 312 313 314 316 316 317 319 322 324 324 324 324 326 328 329 330 331 332 332 332 332
320 323 322 322 327 324 322 321 318 320 321 323 323 317 317 318 319 319 317 322 323 320 322 322 327 336 332 332 335 331 327 324 321 320 319 318 317 315 314 311 309 309 309 310 310 311 312 312 313 312 311 311 310 310 309 309 308 308 307 307 307 307 307 307 308 308 310 311 315 317 318 319 319 320 320 320 320 321 323 324 325 327 329 330 331 332
318 320 320 320 323 321 321 321 318 319 320 321 319 316 318 320 324 325 319 326 326 320 323 322 327 340 335 331 334 331 328 326 321 321 319 317 317 315 313 311 309 309 309 309 309 310 310 310 310 309 309 308 308 308 308 308 307 307 307 307 306 306 306 306 306 306 307 308 312 314 315 316 316 316 317 317 317 317 318 319 320 322 325 327 328 330
317 317 318 319 320 319 319 319 316 316 316 316 318 319 319 320 328 335 333 329 322 323 331 324 325 338 335 331 333 330 329 326 320 320 319 317 317 315 313 311 309 309 309 309 309 309 310 309 309 309 308 307 307 307 307 307 307 306 306 306 305 305 305 305 305 305 305 306 307 307 308 309 309 310 311 313 314 315 315 315 316 316 319 322 325 328
319 319 319 318 317 317 318 319 316 314 314 317 325 322 317 322 325 330 333 326 320 327 333 326 322 326 329 333 333 328 327 323 319 320 318 317 316 315 313 311 310 309 309 309 309 309 309 309 309 308 307 307 307 307 306 306 306 305 305 305 305 304 303 303 303 303 303 303 303 303 303 303 303 303 304 305 307 309 310 310 311 311 312 315 319 323
324 321 320 317 316 316 319 323 320 320 319 320 329 327 322 325 322 325 331 323 322 328 325 323 321 318 327 336 331 327 325 321 319 318 317 316 315 315 313 311 310 309 309 309 309 309 308 308 308 307 307 307 307 306 306 306 305 305 305 305 305 303 303 303 303 303 302 302 302 302 302 302 302 302 302 302 302 303 304 304 305 305 306 307 309 314
330 325 322 319 318 315 319 325 321 322 322 319 327 327 325 327 319 324 332 320 318 324 319 319 317 317 331 332 324 324 322 318 318 315 315 315 313 313 312 311 311 309 309 308 308 308 308 308 308 307 307 307 306 306 306 306 305 305 306 305 304 304 304 304 304 304 303 303 302 302 302 302 302 302 302 303 302 302 302 302 302 302 302 303 303 305
326 325 325 319 319 317 321 324 319 320 321 318 321 319 321 328 320 321 329 322 318 323 321 318 316 324 336 327 319 320 318 317 317 315 314 314 312 312 311 311 311 309 308 308 308 308 307 308 307 307 307 307 306 306 305 305 305 305 305 304 305 305 305 305 304 304 304 303 303 303 303 303 303 303 303 303 303 303 303 303 302 302 302 302 302 301
319 322 326 318 315 318 320 319 317 318 320 317 317 317 320 327 323 320 324 324 321 323 326 322 320 328 331 322 317 317 316 316 316 314 314 313 312 312 311 311 310 309 308 308 307 308 307 307 307 307 307 306 306 305 305 305 305 305 304 304 305 305 304 305 305 304 304 304 304 304 304 304 304 304 304 304 304 304 304 304 303 303 303 302 302 302
319 325 328 318 315 318 317 318 316 314 320 320 315 318 319 317 320 321 320 322 320 320 325 323 324 331 327 321 319 318 318 318 316 314 314 313 312 312 311 311 309 309 308 308 308 307 307 307 307 307 307 306 306 305 305 305 304 304 304 304 304 304 304 304 304 304 305 304 304 304 304 304 304 304 304 304 304 304 304 304 304 304 304 303 303 303
320 328 329 319 318 319 314 315 316 311 316 322 319 320 318 314 321 323 319 324 324 321 324 322 324 333 330 324 322 318 319 319 317 315 314 313 313 312 311 310 309 309 308 308 308 307 307 307 307 307 306 306 306 305 305 305 305 304 304 304 304 304 304 304 304 304 304 304 304 304 304 304 304 304 304 304 304 304 304 304 304 304 304 304 303 303
318 326 331 322 319 321 316 314 317 316 315 316 316 317 317 316 323 324 319 323 323 320 325 325 323 326 328 327 323 319 319 318 317 316 315 313 312 311 312 310 309 309 308 308 308 307 307 307 307 307 306 306 306 305 305 305 305 305 304 304 304 304 304 304 304 304 304 304 304 304 304 304 304 304 304 304 304 304 305 304 304 305 304 304 304 304
318 321 330 325 317 319 323 320 321 325 321 316 316 317 319 322 323 321 320 322 323 323 327 327 323 324 327 328 325 320 318 317 316 316 315 313 312 312 312 310 309 308 307 308 308 308 307 307 307 306 305 306 305 305 305 305 305 305 304 304 304 304 304 304 304 304 304 304 304 304 304 304 305 305 305 305 305 305 305 305 305 305 305 305 304 304
320 317 326 332 322 318 326 325 322 326 322 319 322 320 321 323 320 317 317 319 323 326 328 326 325 331 333 327 324 322 318 316 316 315 314 311 311 312 311 310 309 307 307 307 307 307 307 308 307 306 305 306 305 305 306 305 305 305 305 305 304 304 304 304 304 304 304 305 305 305 305 305 305 305 305 305 305 305 305 305 305 304 304 305 304 304
321 320 327 333 326 322 327 324 319 323 321 320 322 321 320 322 320 319 320 323 323 323 328 326 323 330 329 320 321 322 318 316 315 313 313 312 312 312 311 310 309 307 307 307 306 307 307 307 308 307 306 305 305 305 305 305 305 305 305 305 304 304 304 304 304 305 305 305 305 305 305 305 305 305 305 305 305 305 305 305 305 304 304 304 304 304
319 323 325 326 325 323 322 316 312 315 318 318 318 318 319 321 323 324 325 326 322 318 323 322 320 328 326 317 319 319 316 315 314 312 312 311 312 312 311 309 308 307 307 307 307 307 306 307 307 307 306 305 305 305 305 305 305 304 305 305 304 304 304 304 305 305 305 305 305 305 305 305 305 305 305 305 305 305 305 305 305 304 304 304 304 304
319 322 321 325 329 325 320 318 313 312 316 317 317 317 317 317 322 327 328 324 321 320 321 318 320 329 327 318 315 313 312 314 312 312 313 311 313 312 310 309 308 307 307 307 307 306 305 306 306 306 305 305 305 305 305 305 304 305 305 305 305 304 305 305 305 305 305 305 305 305 305 305 305 305 304 304 304 304 304 304 305 304 304 304 304 304
319 324 324 324 328 328 328 327 322 318 319 320 321 320 318 317 319 322 321 318 319 322 320 319 323 327 324 319 314 312 313 313 311 312 312 311 311 311 309 308 307 306 306 306 305 305 305 305 306 305 305 305 305 305 305 305 305 305 305 305 305 305 305 305 305 305 305 305 305 305 305 305 305 304 304 304 304 304 304 304 304 304 304 304 304 303
319 327 326 322 324 325 326 329 328 324 321 320 320 318 317 318 318 320 320 318 320 321 319 321 325 323 320 319 317 314 315 314 311 310 311 309 309 308 307 306 305 305 305 305 305 306 305 305 305 305 305 306 306 306 306 306 306 306 306 305 306 305 305 305 305 305 305 305 305 305 305 305 305 305 304 304 304 304 304 304 304 304 304 304 304 303
322 322 321 323 325 322 320 325 327 322 319 319 320 319 319 318 317 321 323 321 321 320 318 320 321 317 316 318 318 317 315 314 312 308 308 308 306 306 306 305 305 305 305 306 306 305 305 305 306 306 306 306 306 306 306 306 306 306 306 306 306 306 306 306 306 306 306 306 306 306 306 306 305 305 305 304 304 304 304 304 303 303 303 303 304 303
322 318 319 322 322 320 319 322 323 320 318 318 319 320 320 318 317 319 320 320 321 319 317 318 319 317 316 316 318 318 317 315 311 306 306 306 305 305 306 305 306 305 305 306 305 305 305 305 305 306 306 306 306 306 306 306 306 306 306 306 306 306 306 306 306 306 306 306 306 306 306 306 306 306 305 305 304 304 304 304 303 303 303 303 303 303
322 320 321 320 318 319 319 318 319 318 317 318 318 318 319 319 319 318 317 318 319 317 316 317 319 318 315 315 318 319 315 312 308 305 305 305 305 306 306 305 306 306 306 305 305 305 305 305 306 306 306 306 306 306 306 306 306 306 306 306 306 306 306 306 306 306 306 306 306 306 306 305 306 306 306 305 305 305 305 304 304 303 303 303 303 303
318 324 325 319 317 320 319 317 317 316 316 316 316 316 317 317 318 317 316 316 317 316 316 315 316 316 313 314 317 313 309 306 304 304 305 305 306 306 305 305 306 305 305 305 305 306 305 306 306 306 306 306 306 306 306 306 306 306 306 306 306 306 306 306 306 306 306 306 305 305 305 305 305 305 305 305 305 305 305 304 304 304 303 303 303 303
314 325 324 318 318 321 321 320 318 315 316 316 314 315 316 315 316 315 314 315 315 316 316 315 315 315 311 309 308 305 304 305 305 305 305 306 306 306 305 306 305 305 305 305 305 306 306 306 306 306 306 306 306 306 305 305 305 305 305 305 305 306 306 306 306 306 306 305 305 305 305 305 305 304 304 304 305 305 305 304 304 304 304 303 303 303
315 320 319 316 318 321 321 321 319 315 315 314 314 314 315 315 316 315 315 315 315 315 316 314 315 316 311 305 303 303 303 304 305 305 305 305 306 305 305 305 305 305 305 306 306 306 306 306 305 305 305 305 305 305 304 304 304 305 305 305 306 306 306 306 306 305 305 305 305 304 305 304 304 304 304 304 304 305 305 304 304 304 304 303 304 304
318 320 321 319 320 321 319 317 317 317 316 317 317 316 315 314 314 314 314 315 314 314 316 315 315 315 311 306 305 305 304 303 304 304 305 306 305 305 305 304 305 306 306 306 306 305 305 305 304 304 304 304 304 303 303 303 304 305 305 305 305 306 305 305 305 305 304 304 304 304 304 304 304 303 303 304 304 304 304 304 304 304 304 304 304 304
317 320 322 319 320 325 320 314 316 319 318 320 321 318 315 313 314 314 314 313 314 314 314 314 313 312 310 308 308 307 305 305 305 305 306 306 305 305 305 305 306 306 306 306 305 305 304 303 303 303 303 303 303 302 302 302 303 305 305 305 305 305 305 305 304 304 304 304 304 304 304 304 304 304 304 304 304 304 304 304 304 304 304 304 304 305
319 319 319 316 319 323 317 313 318 321 317 315 317 317 314 312 313 313 313 313 314 313 311 309 309 308 306 305 305 305 305 306 306 306 306 305 304 304 305 306 306 306 305 305 304 304 303 302 302 303 303 303 302 302 301 302 303 305 304 304 304 304 304 304 303 304 304 304 304 304 304 304 304 303 304 303 303 303 303 303 304 304 304 304 305 305
319 318 318 318 319 319 317 316 320 321 316 313 315 314 311 310 311 311 312 313 312 312 311 308 307 305 303 303 305 305 306 306 305 305 305 304 304 305 305 306 305 305 304 304 303 303 302 302 303 303 302 302 301 301 302 303 304 305 304 304 304 303 303 303 303 304 304 304 304 304 303 304 303 303 303 303 303 303 303 303 303 304 304 305 304 304
317 318 318 319 319 318 319 321 320 319 318 316 317 316 311 310 312 313 315 313 308 307 308 308 309 307 303 304 306 306 305 305 304 305 304 305 305 305 305 305 304 304 303 303 302 302 302 302 302 302 302 301 301 302 303 304 304 303 303 303 303 303 303 303 303 304 304 304 304 303 303 303 303 303 303 303 304 304 304 304 304 304 304 304 303 302
314 317 317 318 319 317 318 320 319 321 321 317 315 314 308 307 311 313 313 311 306 303 304 307 310 308 304 304 306 305 306 307 307 306 305 305 305 305 305 304 303 303 302 302 301 301 301 302 302 302 302 302 302 303 303 303 303 303 303 303 303 303 303 303 303 303 303 303 303 303 303 303 303 304 304 304 304 303 303 303 303 303 303 302 302 302
313 316 316 317 319 318 318 319 319 321 320 315 313 311 306 304 307 310 314 313 307 302 303 306 308 306 304 305 306 306 308 309 309 307 305 305 305 304 304 303 303 302 302 301 301 301 301 302 303 302 302 303 303 304 303 303 303 303 303 302 302 303 303 302 303 303 303 303 303 303 303 303 304 304 304 303 303 303 303 303 303 302 302 302 302 302
314 314 314 315 317 317 317 318 318 319 317 314 314 311 306 305 306 310 317 316 307 302 304 306 306 305 305 306 306 308 309 309 308 306 304 304 304 303 303 303 302 302 301 301 301 302 302 303 303 303 303 303 304 304 303 303 303 303 303 302 302 302 302 303 303 303 303 303 303 303 303 303 304 304 303 303 303 302 302 302 302 303 302 303 303 302
315 313 312 313 315 316 316 317 317 317 316 314 313 309 305 305 308 312 316 314 306 303 305 306 306 306 306 306 306 308 308 306 306 305 304 304 303 303 303 302 301 301 301 301 302 303 303 303 303 304 304 304 304 304 304 304 303 303 303 303 302 303 303 303 303 303 303 303 303 304 304 304 304 304 303 303 302 302 303 302 303 303 303 303 303 303
316 315 314 313 313 314 315 315 315 317 315 311 309 306 304 307 312 313 311 307 304 305 306 306 306 306 306 306 306 306 305 305 305 304 303 303 303 303 302 301 301 300 301 302 303 303 303 303 303 304 304 304 304 303 303 303 303 303 303 303 303 303 303 303 303 303 304 303 303 304 304 304 304 303 303 303 302 303 303 302 303 303 303 304 304 305
316 316 316 314 314 315 314 314 315 315 311 307 306 307 307 310 313 309 305 304 305 306 306 306 306 306 306 305 305 305 305 304 304 303 303 303 303 302 301 300 300 301 302 303 302 302 302 303 303 303 303 303 303 303 303 303 303 303 303 303 303 303 303 302 303 303 303 303 303 304 304 304 304 303 303 302 302 303 303 303 304 305 305 305 306 306
316 317 317 315 315 314 314 314 314 312 308 306 307 309 309 309 308 306 304 305 306 306 306 306 306 306 306 305 305 304 304 304 303 303 303 303 302 302 301 300 300 301 302 302 302 302 302 302 303 303 303 303 302 302 303 303 303 303 303 303 303 303 303 302 303 303 303 303 304 304 304 304 303 302 302 302 302 303 305 306 306 307 307 307 307 307
316 316 316 315 315 315 315 316 313 308 305 306 307 307 307 306 306 306 306 306 306 306 306 306 306 306 305 305 304 304 304 304 303 303 303 302 302 301 300 300 301 302 302 302 302 302 302 302 303 302 302 302 301 302 303 303 303 303 303 303 303 303 303 303 303 303 303 303 304 304 303 303 302 302 302 302 303 304 305 305 306 308 308 307 307 307
311 310 312 314 314 314 313 313 310 306 305 306 306 306 306 306 306 306 306 306 306 306 306 306 306 305 305 305 304 304 304 304 303 303 302 302 301 300 300 300 301 301 301 302 302 301 301 301 302 302 302 301 301 302 302 302 302 303 303 303 303 303 304 303 303 303 304 304 304 304 303 302 303 303 302 303 303 304 304 305 307 307 307 306 307 308
309 307 309 312 312 313 313 310 307 306 306 306 307 307 306 306 306 306 306 306 306 306 306 306 305 305 305 305 304 304 304 304 303 302 302 301 300 300 300 301 301 301 301 301 301 301 301 301 301 302 302 301 301 301 302 302 302 302 302 303 303 303 304 304 303 303 304 304 304 303 302 302 303 302 303 303 304 304 305 306 307 307 307 307 308 308
309 307 309 310 310 310 311 308 304 304 305 305 306 307 306 306 306 306 306 306 306 305 306 305 305 305 305 305 304 304 303 303 302 302 301 300 300 299 300 301 301 301 301 301 302 302 302 301 301 302 301 301 300 300 300 301 300 300 301 302 302 303 304 304 304 303 303 303 304 303 302 303 303 302 303 304 304 304 305 305 305 306 307 307 307 307
307 307 309 310 309 308 309 307 304 305 307 306 306 306 306 306 306 305 306 306 306 306 306 305 305 305 305 304 304 303 303 303 302 301 300 300 299 299 300 301 301 301 302 301 301 301 301 300 300 300 300 300 299 299 299 299 299 299 299 300 301 302 303 304 304 303 303 303 303 303 303 303 302 303 305 305 304 304 304 304 304 306 307 307 306 307
306 308 309 309 309 309 309 308 306 307 308 307 306 305 306 306 305 306 306 306 306 306 306 305 305 305 304 304 303 303 302 302 301 300 300 299 299 299 301 301 301 301 301 301 301 301 300 299 299 299 299 298 298 298 298 298 298 298 298 299 300 302 303 304 304 303 303 303 303 303 303 302 302 304 306 305 303 303 303 303 304 305 306 306 306 306
306 308 308 308 309 309 307 306 305 305 306 306 305 305 306 305 305 305 305 305 306 306 306 305 305 304 304 303 303 302 302 301 300 300 300 299 299 300 301 301 301 301 301 300 301 301 300 299 299 298 298 298 297 297 297 297 297 298 298 299 300 301 303 304 304 303 303 303 302 303 303 302 303 305 305 304 303 302 303 303 304 304 304 304 304 303
Wind_Speed
3 3 3 3 5 7 7 6 8 6 4 4 2 2 2 2 4 5 4 7 2 8 7 7 10 10 10 9 11 17 22 23 21 20 21 20 22 25 27 28 32 36 34 32 31 28 24 21 19 18 16 13 12 10 8 6 6 5 4 3 1 1 3 3 4 2 1 3 5 5 6 8 10 11 13 14 15 15 14 14 15 15 14 14 14 13
4 3 3 6 7 7 8 6 6 3 2 2 2 1 2 2 4 6 3 7 2 8 3 5 12 11 9 10 12 16 18 18 17 16 17 18 21 24 26 29 31 32 33 33 32 28 25 23 22 21 20 17 15 14 12 11 11 10 10 9 7 4 2 1 2 3 3 5 6 7 9 11 13 13 13 13 12 12 13 16 18 16 14 14 14 14
4 1 7 8 6 2 3 2 4 3 2 2 2 2 1 2 3 6 4 4 3 7 0 3 11 8 9 12 14 17 17 16 18 17 17 17 19 22 25 28 31 32 34 34 33 31 28 26 25 24 23 22 20 20 18 18 17 17 17 16 14 11 8 5 2 2 5 7 8 11 12 13 13 13 13 13 11 10 11 13 14 13 14 15 15 15
3 5 7 5 4 2 3 5 6 4 3 3 3 3 2 3 1 3 4 5 5 6 6 7 9 5 7 11 12 15 16 17 18 19 19 19 20 21 23 27 30 31 32 33 33 32 30 28 27 26 26 25 24 23 22 21 21 21 20 19 18 16 14 13 10 8 6 5 6 9 10 10 10 10 11 11 9 8 9 11 12 12 12 13 15 15
4 7 5 3 5 3 2 4 6 5 2 1 2 5 3 4 3 5 2 4 6 4 7 8 7 3 3 7 7 9 12 13 14 16 18 19 20 22 25 27 29 30 31 32 32 31 30 28 27 26 25 24 24 23 23 22 21 21 20 20 19 18 18 17 16 15 13 12 10 9 8 8 8 8 8 9 8 7 8 11 13 14 14 14 15 16
5 5 4 3 5 5 2 2 2 4 0 3 3 6 7 6 6 5 2 4 5 0 3 4 5 3 2 5 6 4 6 8 10 11 13 14 17 22 25 26 27 29 30 30 30 29 28 27 26 25 23 23 23 22 21 19 19 18 18 17 17 17 17 17 17 17 17 17 16 16 15 14 13 11 9 9 8 8 8 10 12 14 14 16 17 18
3 5 6 3 3 5 5 2 1 4 4 1 4 7 6 5 4 4 2 2 2 3 4 3 5 2 2 2 6 5 4 4 6 7 8 10 14 18 21 22 24 27 26 26 25 25 24 24 23 22 21 20 19 18 16 14 14 13 13 13 13 14 14 15 15 14 14 15 16 16 16 16 16 14 12 11 10 9 9 10 10 11 12 15 17 18
2 6 8 6 5 6 5 3 1 4 6 2 4 5 4 3 4 4 3 3 3 3 2 3 5 4 2 3 6 8 5 3 3 3 4 6 10 13 16 19 21 22 22 22 21 21 20 19 18 18 16 15 14 13 12 11 12 12 12 12 12 13 14 14 15 15 15 15 14 14 14 14 13 13 13 13 12 10 10 10 9 9 10 11 14 15
1 4 5 5 6 4 2 1 3 4 4 5 5 2 2 2 2 3 5 4 1 0 3 4 3 4 2 3 6 7 5 3 3 3 2 4 8 11 14 16 18 19 18 18 18 18 17 15 14 13 12 12 12 11 11 13 14 14 15 15 15 15 15 15 16 17 17 18 16 14 14 13 12 12 12 13 14 14 14 13 12 10 10 9 10 12
1 1 1 4 4 1 3 4 3 5 1 6 2 2 2 3 3 1 4 3 2 2 4 6 1 4 2 4 6 5 5 6 6 5 5 7 9 11 13 15 15 16 16 16 16 15 14 13 12 11 11 11 11 12 12 13 14 15 15 15 15 16 15 15 16 16 17 19 18 17 15 15 14 14 14 15 16 17 18 19 17 15 14 12 11 10
3 1 1 3 1 3 4 3 1 3 2 3 4 4 3 4 4 3 2 3 2 2 6 6 1 4 2 5 8 5 4 9 9 6 7 9 10 11 12 13 14 14 13 13 13 13 12 11 10 9 9 10 10 11 12 13 14 14 14 14 15 15 14 14 14 14 15 16 17 18 17 17 18 18 18 18 19 20 21 22 22 21 19 16 13 12
5 2 1 1 2 2 1 1 1 1 2 3 5 3 4 5 4 4 5 3 2 4 6 4 1 3 3 5 8 6 3 10 12 9 9 9 12 13 12 12 12 12 11 11 10 10 9 8 7 6 7 8 10 11 12 13 14 14 14 15 14 13 11 10 11 11 11 12 13 14 15 16 17 18 19 19 19 21 22 23 24 24 23 21 18 15
3 2 3 3 2 4 3 2 4 5 5 6 4 5 4 4 4 2 3 1 2 5 3 3 4 1 5 5 5 6 5 8 9 11 14 14 15 15 13 12 11 10 9 9 8 7 6 5 4 4 6 8 9 10 11 13 14 15 14 13 12 11 9 9 10 10 10 11 12 13 14 15 16 17 18 19 19 19 21 22 24 25 26 25 22 19
3 4 6 3 2 4 4 3 2 4 5 5 2 3 2 2 3 2 3 2 3 4 3 2 3 2 4 3 2 3 5 9 12 16 20 20 18 16 14 12 11 10 9 8 6 5 3 1 2 3 5 6 7 9 11 13 12 11 9 9 9 10 11 13 13 13 12 12 13 14 15 16 18 19 20 21 21 21 21 22 23 24 26 26 25 22
0 4 4 0 1 3 3 3 4 3 2 3 2 3 2 4 3 3 3 2 3 3 4 3 2 2 3 3 4 1 6 11 16 19 20 19 18 15 14 13 12 10 9 6 4 3 2 3 3 4 5 6 8 11 12 10 9 7 6 7 9 11 13 15 15 15 14 13 14 16 17 19 20 20 21 22 23 24 23 23 24 24 25 27 27 26
1 5 6 3 2 1 2 2 3 4 2 3 2 3 1 3 4 2 3 3 2 2 4 2 2 3 3 3 3 3 6 9 13 15 16 17 17 15 14 14 13 10 8 6 6 6 6 6 6 6 6 8 10 11 11 10 8 6 5 7 9 11 12 14 15 16 16 16 16 17 18 20 21 22 23 23 24 25 26 26 26 26 27 28 29 29
1 4 6 4 2 3 1 3 2 2 0 2 1 1 3 3 6 3 2 1 3 0 4 1 2 3 2 2 1 5 5 6 8 11 14 16 16 15 15 15 13 11 10 9 9 9 9 9 8 7 9 11 12 12 12 11 10 9 8 9 10 10 11 11 13 15 18 19 19 20 21 22 23 24 25 25 26 26 26 28 28 29 29 29 31 31
3 3 6 1 2 3 2 1 1 1 2 2 1 4 2 2 4 3 1 3 2 2 4 1 3 3 2 2 1 4 6 8 8 9 12 16 17 16 17 16 14 12 11 11 12 12 12 12 10 10 12 13 14 14 14 14 13 12 12 12 12 12 12 13 13 14 17 19 21 22 23 24 25 26 27 28 29 28 28 28 29 30 31 31 32 33
3 2 7 2 2 4 5 2 1 4 2 3 2 2 2 2 1 1 1 1 1 2 4 3 3 3 3 4 5 8 11 13 12 10 10 13 16 18 19 17 14 12 12 13 13 13 13 12 11 13 15 16 16 16 16 16 16 16 15 15 15 14 14 15 15 16 18 20 22 24 24 25 26 27 28 29 30 30 30 30 30 31 32 32 32 33
2 1 5 4 2 4 6 3 1 4 4 3 2 2 2 2 4 1 1 3 2 2 3 4 4 3 5 6 10 14 16 15 14 12 11 13 18 22 21 18 14 11 11 12 13 14 15 14 14 15 17 19 20 20 20 19 19 19 19 19 18 18 17 17 17 19 21 23 24 26 26 27 28 28 29 30 31 32 32 32 32 32 32 33 33 33
3 2 4 5 4 3 3 1 4 4 2 2 2 2 3 1 0 1 1 2 3 2 2 2 4 5 5 3 9 14 14 14 16 13 11 14 21 23 22 18 14 10 10 11 12 14 17 18 18 17 18 21 22 23 23 22 22 22 22 22 21 21 20 19 19 21 24 25 26 28 29 30 31 32 32 32 33 34 34 34 34 33 33 32 32 32
1 3 3 3 4 2 5 5 4 6 5 4 3 2 2 1 1 0 3 2 1 2 4 3 4 7 5 2 4 9 9 12 16 14 11 16 22 22 20 17 12 10 11 11 12 15 17 20 21 18 18 20 22 23 24 24 25 25 25 24 24 23 22 22 23 25 26 27 27 29 30 31 32 33 34 34 34 34 34 35 34 34 33 31 29 30
3 4 2 3 4 5 8 6 3 4 4 5 2 2 3 2 3 4 3 4 1 1 1 2 3 7 5 3 4 5 6 10 16 17 14 17 21 20 18 15 11 11 12 13 14 17 19 20 20 19 18 19 20 20 21 23 24 26 26 26 26 26 25 25 27 28 28 28 29 31 31 32 32 33 33 34 34 34 33 33 34 34 34 32 29 29
2 3 1 3 4 4 7 5 3 3 5 5 0 1 2 1 3 5 4 3 1 2 1 1 4 6 5 4 4 2 3 9 15 18 16 15 17 17 15 12 12 13 14 15 16 16 16 16 16 17 16 16 16 17 18 19 20 22 24 25 26 27 27 28 29 29 30 31 33 33 33 33 33 33 33 34 34 34 33 32 33 34 34 33 31 30
2 0 2 1 5 6 6 6 5 4 2 2 1 2 2 3 5 2 1 2 1 4 5 4 5 6 5 4 5 5 5 7 10 13 12 11 12 13 11 10 12 13 13 13 12 12 11 11 13 14 14 15 16 17 18 18 20 21 22 24 25 27 29 30 31 32 33 34 35 36 35 34 34 34 35 35 34 34 34 33 33 34 34 34 34 32
4 2 4 2 3 4 3 2 3 2 1 1 1 2 2 3 5 3 1 2 2 4 5 5 5 6 4 3 4 4 3 3 5 8 10 10 9 8 8 8 10 10 8 7 8 9 10 11 13 14 15 16 18 19 21 23 24 26 27 27 27 28 30 31 32 34 35 36 36 37 37 36 34 35 36 36 36 35 34 34 34 34 34 34 35 35
3 1 4 6 7 7 7 7 5 3 2 3 4 3 4 4 5 5 3 3 4 3 3 6 7 9 8 3 3 3 3 4 5 7 9 8 6 5 5 5 5 5 6 7 9 11 12 13 14 14 16 18 20 22 25 27 28 29 30 31 30 30 31 33 34 36 36 37 38 39 39 38 36 35 36 36 37 37 36 35 34 34 34 34 36 37
4 2 5 6 9 9 8 8 5 3 4 7 7 7 7 5 5 6 5 6 4 1 6 8 8 9 10 7 6 7 6 5 6 8 7 4 3 3 4 5 6 7 9 10 12 13 13 14 14 16 19 22 25 28 30 31 32 33 33 34 34 34 34 34 35 37 38 39 40 41 42 41 40 38 38 38 38 39 39 37 35 35 35 35 36 39
4 4 5 5 8 10 8 8 6 4 5 6 7 9 9 7 7 8 10 8 7 6 12 9 6 8 9 7 6 7 8 9 7 6 4 2 2 4 6 9 10 11 11 11 11 11 11 14 18 22 26 29 31 33 34 35 36 36 36 37 37 36 36 36 37 39 40 41 42 42 42 41 41 39 39 39 41 42 41 39 37 36 36 36 37 39
3 4 4 6 6 9 8 8 7 6 6 6 9 11 10 10 12 12 11 9 9 12 15 12 9 11 10 7 6 5 7 8 6 4 3 3 5 7 9 12 13 13 12 10 10 12 14 20 25 29 32 33 34 35 35 36 37 37 38 38 37 36 36 37 38 40 41 41 42 41 41 40 39 38 38 39 41 43 43 40 38 38 38 37 37 40
3 3 2 4 3 7 7 7 8 7 8 9 11 9 9 11 12 11 10 9 8 11 15 12 12 13 6 1 2 4 7 7 5 2 3 4 7 10 13 14 15 14 12 11 14 18 22 27 30 32 33 33 33 34 35 36 37 38 38 37 36 36 36 37 39 40 40 40 40 40 40 39 39 39 39 39 40 42 42 40 38 38 38 38 38 40
4 3 1 4 2 6 4 6 7 4 5 10 10 8 10 12 10 9 9 9 9 12 12 9 8 9 3 2 3 5 6 5 2 2 4 7 9 12 14 14 13 13 14 17 22 26 29 31 32 31 31 32 33 34 35 35 36 37 36 35 34 35 36 36 37 38 39 39 39 39 38 38 37 36 36 37 38 39 39 38 37 37 38 39 39 39
5 4 1 4 3 6 3 3 2 3 4 10 9 10 15 14 12 11 9 8 10 9 8 7 7 6 3 3 3 3 2 1 1 3 6 10 12 12 12 12 12 14 19 24 28 31 32 32 32 32 32 33 34 35 35 35 35 35 34 33 33 33 34 35 35 37 38 38 37 37 36 36 35 33 33 33 33 33 34 35 35 35 38 40 40 40
5 5 3 4 3 5 3 3 4 2 6 9 5 9 15 15 14 14 11 10 10 7 4 4 4 3 3 4 4 2 1 1 3 6 8 11 12 10 9 11 14 20 26 30 32 33 33 34 35 35 35 35 36 37 36 35 33 32 31 30 31 32 33 34 34 35 36 34 33 34 34 33 33 33 33 33 31 31 31 32 34 36 38 40 41 41
6 5 4 3 2 4 1 4 1 7 8 5 2 2 7 8 10 12 10 8 8 7 5 4 3 4 4 4 4 2 0 3 6 8 7 8 8 6 8 14 20 26 30 32 34 35 35 35 35 36 37 37 37 37 36 33 30 29 29 29 31 32 32 31 32 33 33 31 31 32 32 31 32 33 35 35 34 33 33 33 35 36 38 40 41 43
8 6 3 2 2 2 1 3 6 7 4 4 4 2 2 2 4 4 5 6 4 7 7 6 5 4 4 5 4 2 2 5 6 5 3 4 6 6 13 21 26 29 31 33 34 34 34 33 33 35 37 37 37 34 31 29 27 27 29 29 30 30 30 29 30 31 31 30 31 32 32 32 34 35 35 34 34 34 34 35 36 36 38 39 42 45
8 6 3 3 4 3 4 5 4 7 8 7 6 3 3 4 5 6 4 5 4 4 5 7 6 4 5 5 2 2 4 2 1 2 2 3 7 11 19 25 27 29 31 31 31 31 31 32 32 33 34 34 33 29 25 25 25 27 29 29 29 29 29 29 30 30 30 31 31 32 33 34 35 35 33 32 31 32 33 35 36 37 39 41 45 48
8 6 6 7 5 3 4 5 4 7 10 6 4 3 3 3 6 7 3 3 4 5 6 8 7 5 5 4 1 4 5 3 0 3 4 7 13 19 24 26 26 27 28 28 29 30 30 30 29 29 30 30 28 23 21 23 25 27 29 29 29 30 30 31 32 32 32 32 32 32 33 32 32 31 30 30 31 33 34 36 38 41 43 45 49 51
7 3 3 5 4 3 5 5 6 8 7 3 4 4 1 5 8 7 3 3 4 6 9 9 7 6 6 3 2 5 6 4 4 5 7 12 18 21 23 24 25 25 25 26 28 29 28 26 26 27 28 27 25 22 21 23 25 27 28 29 29 30 31 32 33 32 33 33 32 32 32 30 29 29 30 32 33 35 38 41 43 46 48 50 51 53
6 2 2 5 7 6 6 6 5 5 3 3 5 3 3 7 7 6 3 6 6 9 11 10 7 7 6 3 2 4 3 2 7 10 12 15 18 19 20 23 24 24 25 26 25 24 24 24 25 26 25 24 23 23 23 25 27 28 29 29 29 31 32 33 32 31 32 32 32 32 31 29 29 30 32 34 37 40 44 46 48 50 50 50 50 50
4 1 3 7 8 6 7 6 4 4 3 4 4 4 7 6 4 2 5 6 11 13 10 8 6 5 5 5 4 3 5 8 12 16 16 15 17 19 20 22 23 23 24 23 21 21 22 23 24 25 25 25 25 25 27 28 30 31 31 30 31 32 32 32 32 31 30 31 32 32 31 30 30 32 34 37 41 45 46 46 46 45 46 47 47 47
3 1 2 5 5 4 4 5 3 4 3 3 3 6 7 3 1 4 4 8 17 16 9 7 5 4 5 6 7 8 10 11 13 16 16 16 18 20 21 22 23 22 20 19 19 21 22 23 24 24 25 25 26 27 28 29 30 31 31 32 32 32 32 32 32 30 30 32 33 32 31 31 31 34 38 40 41 42 42 43 43 44 45 45 42 40
3 2 1 3 3 1 1 3 3 3 2 5 7 5 3 2 4 8 10 12 14 11 8 7 6 5 6 8 8 10 11 12 13 15 17 18 19 20 22 22 21 20 19 19 20 21 21 23 24 25 25 26 27 28 27 28 29 30 30 31 31 31 31 32 30 29 30 33 33 31 31 32 35 38 39 38 36 35 36 39 40 38 35 31 28 27
1 2 2 2 1 3 3 3 3 2 2 7 8 3 2 4 8 13 14 12 11 10 8 8 6 6 8 8 8 9 11 12 14 16 17 19 20 21 22 21 18 18 19 20 20 19 20 23 25 25 26 26 27 27 26 26 28 28 28 30 30 30 30 28 27 29 31 32 31 29 30 34 38 38 35 33 34 31 29 29 29 26 22 19 19 22
1 2 3 2 1 3 4 4 4 4 5 9 8 5 3 7 8 9 9 10 11 10 8 7 6 6 6 7 8 9 11 14 16 17 18 20 21 22 21 19 16 17 19 20 18 17 19 22 24 25 26 27 27 27 26 25 25 26 27 28 29 29 29 27 27 29 30 29 28 29 33 39 40 34 31 35 34 27 24 27 25 20 17 16 18 22
1 3 4 1 1 2 4 5 6 6 6 8 8 6 5 7 8 8 7 7 7 6 6 5 5 5 5 7 9 11 13 16 17 17 18 20 22 22 19 15 14 17 19 18 18 19 21 22 24 25 27 28 27 27 27 26 25 25 27 28 29 30 29 28 28 28 28 27 27 30 36 40 36 31 34 36 28 20 22 23 18 13 13 16 19 21
1 4 4 2 2 2 2 3 3 2 4 6 7 7 8 8 9 9 7 5 4 3 3 4 5 5 6 8 11 13 15 16 16 18 19 20 21 20 15 13 13 16 18 19 20 21 22 23 24 25 26 26 25 26 28 28 27 27 28 29 30 31 29 29 28 27 27 27 28 32 36 36 31 32 37 33 22 17 19 21 20 17 15 15 17 17
1 3 4 3 3 4 2 3 1 2 3 3 5 7 8 8 9 8 6 4 4 4 5 6 6 7 9 10 11 13 15 15 16 18 18 19 19 17 13 11 13 15 18 19 19 20 21 22 23 24 25 26 26 28 29 29 29 28 28 29 30 31 30 29 27 25 26 27 29 33 34 30 30 35 35 26 19 18 22 28 31 24 14 13 18 21
2 1 1 1 1 2 4 4 3 4 5 2 5 7 8 8 7 6 6 6 6 7 8 8 7 8 10 11 11 12 14 15 15 16 17 17 17 15 11 11 13 16 19 20 19 20 22 22 21 22 24 25 27 28 29 30 30 29 27 27 28 29 30 29 24 23 25 27 28 31 30 28 32 36 31 23 20 21 24 30 34 27 17 13 13 16
1 2 1 1 2 3 4 2 1 1 3 3 5 8 9 9 7 7 8 8 9 10 10 9 8 8 10 11 12 13 14 15 15 15 15 16 16 12 10 11 14 16 18 19 20 22 22 21 21 22 23 26 27 27 27 29 30 28 26 25 24 26 28 27 23 23 25 26 27 27 25 29 37 36 27 23 21 21 24 28 33 31 23 17 15 17
7 6 4 3 3 4 4 3 2 3 4 6 9 11 9 7 6 7 9 10 12 13 11 9 8 10 11 12 12 13 14 15 14 13 14 16 14 10 8 10 14 17 17 18 20 21 21 21 22 23 25 27 28 28 28 29 28 26 24 22 20 22 25 24 22 22 24 26 27 24 23 32 39 31 23 21 19 21 26 29 33 35 33 29 27 27
Wind_Direction
67 38 336 274 267 277 270 223 222 235 195 184 162 176 257 262 282 276 261 288 4 79 17 35 70 46 40 37 35 49 54 57 57 58 60 61 68 73 77 81 84 87 91 97 101 101 102 100 101 101 99 103 103 93 86 79 58 31 11 20 33 332 330 340 334 323 314 291 259 261 302 304 292 291 287 284 283 279 272 267 268 272 272 269 270 272
66 47 280 246 246 265 282 255 217 222 196 172 166 229 288 201 253 277 267 297 358 93 5 28 70 49 42 48 43 51 56 53 48 54 59 60 68 73 78 83 86 89 94 98 99 99 100 99 99 99 98 101 98 89 83 77 69 60 54 47 42 31 6 319 282 266 281 295 279 277 289 290 288 288 286 284 284 279 274 275 275 273 272 272 273 274
31 304 255 260 271 276 327 340 148 153 141 137 142 131 292 237 267 298 290 295 37 95 98 54 77 60 50 59 54 54 59 57 51 55 61 65 71 74 80 85 88 91 93 96 98 99 100 100 99 97 94 93 90 86 82 77 73 69 66 61 55 53 50 48 24 318 296 287 284 286 288 289 292 292 286 280 279 277 276 280 280 276 275 277 278 277
359 257 254 278 322 10 31 49 99 101 88 123 123 122 252 272 114 299 298 325 9 100 140 105 82 67 57 66 64 61 65 65 60 62 65 69 74 77 84 88 90 92 92 95 98 99 100 99 97 95 92 90 88 84 79 74 70 66 63 60 57 55 52 49 44 32 13 343 319 306 302 301 300 299 295 286 279 276 282 291 295 293 290 287 283 279
252 261 279 346 11 13 8 35 84 95 18 308 152 152 213 251 212 223 257 1 21 89 135 105 74 24 47 76 74 63 64 62 58 63 66 71 80 86 89 91 93 95 95 97 98 99 99 97 95 93 91 89 86 81 76 71 65 59 56 50 46 43 39 37 32 25 20 14 5 354 343 333 324 320 316 310 298 283 279 284 289 293 295 294 288 283
260 288 334 3 19 41 77 19 85 131 27 311 233 199 219 229 231 256 321 51 59 255 225 110 79 324 329 95 104 79 60 56 49 55 63 71 84 90 92 94 97 98 98 98 99 99 98 97 95 92 89 85 81 77 72 66 60 53 47 40 32 26 21 17 12 7 3 359 356 354 353 350 347 345 340 335 327 310 291 281 282 287 288 290 291 289
284 342 25 54 53 60 68 42 227 145 103 318 227 200 210 210 233 277 317 58 103 229 242 118 120 225 275 136 128 112 80 64 47 45 60 77 89 95 98 100 101 101 100 100 99 98 97 96 96 92 88 83 78 72 66 60 53 45 37 29 19 9 1 355 350 346 340 336 333 333 334 334 335 336 336 335 332 325 314 302 293 286 280 282 286 290
287 346 18 43 57 64 64 35 269 130 107 254 225 168 189 223 257 255 188 180 222 236 312 32 108 136 227 219 154 132 115 89 58 48 63 90 101 104 106 107 106 104 104 103 101 99 99 97 95 92 88 83 76 69 60 50 40 32 24 15 8 359 351 343 337 330 323 317 313 307 305 308 312 318 323 327 328 326 322 317 311 301 288 280 279 280
287 9 9 38 45 52 102 264 253 135 121 253 243 151 218 220 250 224 164 168 224 47 301 307 82 106 242 222 164 147 138 153 183 185 174 140 129 124 122 118 113 110 108 106 104 103 102 101 97 94 90 82 73 61 49 39 30 24 17 10 4 356 348 341 332 323 314 306 300 294 291 294 301 307 314 323 329 329 327 325 323 320 312 300 289 281
284 329 351 89 70 7 234 246 217 126 141 272 277 41 54 76 42 63 137 136 69 77 238 253 109 110 237 222 178 172 177 189 191 190 195 177 158 144 135 131 123 117 113 109 108 107 105 104 100 93 84 73 61 52 42 33 25 18 12 6 0 354 347 339 327 313 301 293 290 290 293 297 302 306 308 313 320 325 328 329 331 333 331 326 319 314
302 271 149 89 69 254 238 248 160 133 260 314 38 33 28 35 25 32 62 93 78 285 244 243 158 123 244 231 190 198 200 176 170 174 193 191 181 167 150 141 134 125 120 116 113 111 108 105 101 89 74 62 52 43 32 24 19 14 9 5 359 351 340 326 311 299 291 290 292 296 301 305 308 309 308 307 308 314 320 323 328 333 336 336 330 326
349 72 147 297 308 329 346 260 306 319 316 40 61 33 358 343 5 22 355 41 107 262 259 273 322 139 227 240 204 218 197 160 165 172 179 192 193 181 165 155 145 137 132 125 117 113 111 111 104 85 63 47 35 24 17 16 15 12 9 2 351 339 327 313 303 303 305 309 312 312 315 318 320 322 320 317 313 311 314 316 320 324 329 332 331 326
16 136 287 298 312 3 42 13 333 344 11 35 50 47 24 344 2 9 319 343 214 251 264 328 356 156 228 249 215 208 178 160 167 170 172 183 190 185 177 170 159 151 146 136 127 123 123 119 94 58 33 21 12 7 7 10 8 5 0 351 338 330 334 337 333 328 324 323 326 328 330 331 332 333 332 331 328 322 318 317 317 319 322 326 329 327
341 307 328 350 330 358 67 86 340 323 351 3 58 87 76 68 36 307 278 296 265 264 272 313 346 302 264 300 287 198 167 160 163 170 176 180 182 182 180 177 173 168 162 155 150 148 143 112 19 1 356 354 353 356 359 359 357 353 352 348 344 350 358 0 358 351 339 331 331 332 333 334 333 333 333 333 333 331 327 323 320 320 320 321 324 324
23 297 303 236 287 350 59 142 174 174 326 312 173 136 134 140 144 252 239 223 251 285 303 299 296 235 231 302 303 199 143 155 166 175 180 181 182 181 182 187 189 184 176 172 178 197 239 277 297 303 316 329 339 344 342 340 339 341 352 359 1 3 3 1 1 359 352 345 340 337 335 334 333 332 332 331 331 331 330 327 323 320 319 318 319 321
98 262 254 268 273 101 57 253 171 113 21 280 171 97 24 171 160 191 197 190 195 305 307 285 236 215 193 272 315 86 122 153 171 182 187 191 191 190 196 199 195 193 191 197 217 234 245 255 262 271 300 321 327 326 319 315 318 319 325 335 344 351 354 354 354 352 350 346 341 338 335 334 333 333 332 331 329 327 327 326 324 320 317 315 314 316
83 273 273 316 297 154 106 272 230 130 210 286 105 188 243 173 132 127 258 338 68 287 281 256 252 294 317 293 8 104 137 174 188 199 203 203 201 201 207 205 201 204 208 216 228 236 243 245 250 271 303 314 310 307 305 302 302 300 301 311 322 330 334 339 341 340 340 338 335 333 332 331 331 331 330 330 328 325 323 322 321 319 316 312 309 309
150 265 284 316 190 234 326 311 289 46 128 111 215 222 219 109 101 106 264 342 36 239 270 275 237 270 302 271 204 146 183 210 213 213 213 213 211 213 214 208 206 212 219 228 235 240 243 243 254 282 300 302 296 295 297 295 290 291 295 300 306 313 317 322 326 328 329 329 328 327 327 327 326 326 327 327 326 325 322 320 318 316 314 311 307 305
132 271 292 289 189 291 345 59 22 346 47 118 193 206 116 131 193 56 153 227 274 247 277 304 277 236 214 215 193 189 202 209 210 212 215 218 217 217 217 212 212 219 227 235 241 245 247 250 266 287 295 294 289 288 292 291 286 286 290 293 297 302 307 311 316 321 323 324 324 323 323 323 323 323 323 323 323 323 322 321 318 315 313 310 307 303
105 124 283 287 250 305 355 55 207 302 340 30 41 14 33 156 175 173 172 176 185 229 267 304 315 265 233 206 184 198 206 200 201 207 211 215 216 218 218 214 214 223 234 243 251 257 261 264 275 287 289 287 284 281 284 286 284 287 290 290 292 296 300 303 309 315 319 320 320 319 319 319 319 319 319 319 319 318 319 319 318 317 314 310 307 304
72 114 245 289 320 332 333 264 190 203 269 360 28 344 329 339 159 261 245 144 143 186 218 266 288 267 250 208 187 202 207 197 198 202 203 210 215 217 218 215 218 233 249 256 262 270 272 269 269 279 287 285 283 281 280 282 285 288 289 289 290 292 292 293 300 309 314 316 317 316 315 315 315 314 314 313 313 314 315 315 315 316 315 311 307 304
115 145 197 286 328 293 254 245 197 178 176 158 163 203 214 204 119 210 273 305 74 173 185 182 263 266 259 249 222 219 212 201 199 194 194 207 213 217 216 214 224 250 262 268 272 277 280 274 265 271 286 287 283 282 280 281 284 285 286 288 288 287 286 291 299 305 309 310 311 312 312 312 311 310 309 308 308 309 310 311 312 312 314 312 306 301
138 118 136 259 252 246 264 270 222 180 145 123 151 188 158 145 121 142 227 273 328 265 175 126 253 266 266 287 285 262 227 200 192 186 192 207 213 214 213 216 238 262 269 274 278 280 283 279 267 266 281 287 284 284 282 281 281 281 282 283 283 282 284 293 300 303 302 303 305 307 307 307 306 306 304 303 303 305 305 308 309 310 311 310 306 299
119 94 83 283 292 300 303 322 12 59 87 93 40 175 140 132 127 152 181 187 215 250 162 128 265 266 281 310 333 344 172 173 179 185 195 206 208 208 213 229 255 270 276 278 279 280 281 280 272 269 281 290 290 290 289 287 286 282 279 280 281 282 286 293 299 300 299 299 300 302 303 302 301 299 297 297 299 301 303 305 306 307 308 308 304 299
198 170 94 345 328 334 336 352 357 355 55 141 240 257 198 115 98 113 122 91 272 234 178 191 253 256 279 322 12 43 91 139 171 186 192 193 195 206 224 251 274 281 282 278 272 274 277 281 280 279 284 290 292 293 293 294 296 295 293 289 286 285 288 292 295 296 296 296 297 299 299 298 296 293 291 292 294 296 299 302 303 303 304 305 303 299
183 200 126 144 255 269 275 276 268 266 264 236 247 242 214 144 132 155 100 96 253 242 179 185 239 260 283 341 12 9 59 135 177 182 181 187 198 224 252 275 284 281 276 272 272 280 287 287 284 282 285 288 291 295 297 299 301 302 302 299 293 290 290 291 292 292 292 293 294 295 295 294 291 288 287 287 289 292 294 296 298 298 300 301 301 298
110 198 181 181 207 219 218 223 216 173 187 265 260 230 217 199 159 129 110 180 209 225 217 214 234 264 276 262 252 264 218 198 208 193 192 208 228 254 273 284 286 281 281 285 290 293 289 282 278 280 286 291 294 298 300 302 304 304 303 301 299 296 294 294 294 292 292 292 292 291 290 289 288 287 286 286 285 287 289 291 292 293 295 298 297 296
88 238 221 198 217 229 220 223 219 175 212 242 247 241 233 217 156 144 196 217 171 190 267 237 213 243 262 249 224 222 216 218 223 215 216 233 256 266 285 301 303 300 296 290 287 287 282 276 279 286 292 296 299 300 302 303 304 304 303 301 300 299 298 297 296 294 293 292 290 289 288 288 287 285 284 283 282 282 284 285 287 289 291 293 293 293
122 225 220 192 231 244 234 232 227 206 229 234 227 234 236 224 197 197 222 216 166 217 260 250 204 226 252 252 229 220 217 211 207 212 220 227 259 287 306 312 311 307 300 289 284 285 282 282 290 295 299 302 304 305 305 305 305 304 303 302 301 299 298 298 297 296 295 294 292 292 292 291 289 285 281 279 277 277 278 280 281 284 286 287 289 290
146 234 210 182 240 258 245 242 231 217 238 245 231 226 223 227 229 227 236 229 202 229 255 265 264 260 258 249 242 228 203 189 171 162 193 226 272 299 308 311 314 313 306 296 290 289 290 294 300 304 306 308 309 309 309 307 307 306 305 304 302 299 298 299 298 297 296 295 294 295 295 294 292 289 284 280 275 273 275 276 277 279 280 283 285 287
179 239 187 147 250 271 244 237 236 224 231 245 243 230 219 234 243 244 250 245 230 245 258 269 279 280 279 248 192 146 140 140 131 155 228 267 294 304 309 312 314 309 301 296 296 300 304 307 310 311 311 312 311 311 311 310 308 307 305 305 303 301 300 300 299 298 296 295 295 295 295 294 293 292 290 286 281 275 272 271 273 274 277 280 282 284
176 226 39 97 251 269 227 216 238 247 264 260 250 224 220 231 235 233 237 228 220 239 255 269 277 269 265 75 94 113 121 129 139 280 290 294 296 302 306 306 303 298 300 306 309 312 313 313 313 312 312 312 312 312 312 312 311 308 307 306 305 303 303 301 299 298 297 296 296 296 295 294 293 294 293 291 288 281 272 269 271 273 274 277 280 283
155 166 142 140 222 274 259 192 190 44 326 273 242 203 212 221 224 232 241 228 213 216 231 245 248 234 196 125 115 108 102 133 281 297 292 290 294 301 301 296 296 302 310 314 314 314 314 313 313 313 313 313 313 312 313 313 312 310 309 309 308 306 303 301 299 298 297 297 297 296 296 295 293 293 295 295 294 288 278 271 271 271 272 275 280 283
159 154 178 173 209 266 269 84 69 6 276 266 233 193 203 209 215 224 235 231 215 196 184 217 221 189 159 142 137 153 215 273 308 300 295 294 295 296 295 295 303 310 312 314 314 315 316 317 317 315 314 314 313 313 312 311 310 310 310 310 308 304 301 300 300 300 298 296 296 298 298 296 294 293 294 295 294 291 284 277 274 273 274 277 280 282
161 166 190 172 182 242 213 87 224 261 258 260 298 211 197 198 202 213 233 242 217 192 171 160 160 168 167 147 135 145 223 325 312 297 290 289 283 284 302 308 311 314 315 316 318 318 319 319 318 315 314 312 312 312 310 309 310 312 310 308 306 303 302 303 304 303 300 296 296 299 301 299 297 296 295 294 292 289 286 283 281 280 279 279 281 281
163 170 180 165 174 210 125 155 227 266 277 246 273 322 111 136 145 185 260 282 225 191 178 161 168 175 151 134 124 93 329 315 302 276 250 255 254 277 307 312 314 317 318 318 318 317 317 317 315 312 310 310 311 311 310 311 313 312 308 307 307 306 307 308 308 307 304 300 299 301 302 302 301 299 296 294 291 288 285 284 283 283 282 281 280 281
165 162 172 203 211 205 206 215 250 305 300 264 247 228 191 195 165 165 226 272 254 215 175 147 156 169 156 151 120 7 329 317 258 207 215 245 262 291 309 315 318 319 317 316 315 315 314 313 311 311 311 312 312 312 313 315 315 312 309 308 309 310 311 310 308 308 308 306 306 306 304 303 301 299 296 294 292 290 287 284 283 282 281 281 281 281
180 184 191 210 219 190 213 244 270 283 280 260 220 247 263 203 158 144 159 267 267 240 183 148 152 173 169 160 73 4 1 16 319 250 270 286 295 307 316 320 321 319 316 315 315 313 312 313 315 316 316 315 314 315 317 317 315 312 310 309 312 313 311 309 308 308 309 309 310 309 307 305 302 299 297 295 292 290 288 285 284 283 282 282 282 281
210 221 174 202 224 173 191 229 235 249 260 215 211 275 302 145 134 104 59 284 242 205 174 148 153 178 169 147 51 30 30 7 297 284 293 300 306 314 319 321 321 319 316 314 313 312 315 319 320 319 318 316 316 318 318 317 315 313 311 312 313 312 309 310 312 313 312 310 309 310 310 306 302 298 295 294 292 291 290 289 287 286 284 283 281 280
221 250 141 207 228 210 202 222 229 243 248 205 226 255 144 141 118 80 328 272 211 183 173 153 152 171 163 141 81 67 77 248 278 297 303 303 308 316 321 322 320 317 314 312 312 316 320 322 320 319 319 319 319 319 318 316 314 311 311 312 311 308 309 312 315 316 315 311 308 309 307 302 298 296 296 296 297 296 294 292 290 287 285 283 281 280
220 210 179 214 230 224 217 228 249 265 246 225 231 188 146 123 102 148 255 227 178 177 176 158 153 165 168 175 183 203 247 264 282 298 305 307 312 320 324 322 317 314 313 313 318 325 326 323 321 320 321 323 323 322 320 316 311 308 309 309 307 307 311 315 316 316 315 311 308 306 303 300 299 299 300 301 300 298 296 293 290 288 285 284 282 280
203 159 169 209 219 222 216 219 254 283 245 177 159 159 151 130 219 221 205 157 160 168 173 173 181 186 193 211 226 249 274 285 290 301 311 316 319 324 325 321 318 317 318 319 324 329 328 324 321 320 323 328 328 324 320 316 310 308 308 307 307 310 313 316 317 315 312 312 310 305 303 303 303 303 304 302 301 299 296 292 288 286 284 283 281 279
183 159 171 198 194 157 157 189 215 268 238 133 123 129 158 210 189 158 141 144 158 166 175 193 208 213 217 232 248 262 280 292 298 308 316 319 322 325 322 321 322 323 325 327 328 329 328 322 318 322 328 331 329 325 321 317 312 309 308 308 310 312 314 316 317 313 310 312 311 308 308 308 307 306 306 305 305 304 299 294 292 291 290 287 282 279
177 174 189 210 172 140 168 202 200 215 164 149 154 171 215 195 162 144 144 160 176 183 192 208 224 231 232 245 262 273 286 298 306 314 317 319 324 324 322 325 329 328 331 333 331 330 327 320 321 328 332 332 332 330 326 320 315 312 312 313 314 315 315 316 316 312 312 313 313 312 313 313 313 310 309 311 314 312 309 308 307 303 298 291 286 287
186 152 160 194 198 163 190 227 208 173 158 170 190 222 193 166 162 155 160 177 188 198 211 222 236 242 246 262 277 288 300 308 312 315 317 320 323 323 324 330 332 333 337 339 337 334 327 323 328 334 333 334 338 338 335 330 325 321 322 323 321 318 317 317 317 316 315 314 315 316 316 317 318 315 313 319 324 324 322 320 316 310 302 297 299 302
123 125 125 127 245 237 246 237 207 192 194 199 216 237 205 182 185 191 193 196 201 211 224 236 250 260 267 281 291 299 307 312 313 314 317 321 322 322 326 332 334 338 341 341 340 338 333 332 335 334 330 331 335 336 336 336 335 333 331 329 325 321 319 319 318 317 316 315 316 317 318 321 322 320 321 329 334 332 326 327 330 333 328 321 319 314
213 177 168 170 218 222 252 242 197 197 239 238 240 236 216 208 212 211 211 221 233 243 256 265 275 281 288 297 301 303 308 312 312 313 318 320 319 321 328 333 336 341 343 340 337 335 335 336 334 329 326 326 327 330 332 333 334 333 330 328 326 324 323 321 318 316 318 319 320 319 321 325 327 328 333 343 351 350 352 8 18 8 346 344 355 3
232 175 178 205 210 201 235 274 294 346 329 277 231 227 222 219 219 219 224 243 260 280 285 280 278 284 294 303 303 301 306 310 309 312 317 317 318 323 326 325 332 342 341 335 330 329 331 331 329 326 325 322 323 327 329 328 329 328 326 326 327 326 326 324 322 323 327 327 326 323 324 329 335 338 346 1 16 18 24 30 25 18 23 42 41 35
317 314 186 183 214 258 286 291 302 332 329 265 208 225 237 234 232 237 242 249 261 276 277 274 276 285 296 304 301 298 302 307 309 312 315 316 320 324 317 316 331 339 333 325 324 328 331 332 331 331 328 324 325 329 328 325 325 325 324 325 326 328 328 327 328 333 334 333 331 329 330 339 345 349 360 20 35 37 39 37 33 40 68 77 40 21
275 283 215 177 271 269 257 240 218 303 289 262 263 270 260 246 248 258 256 260 271 273 268 264 271 286 298 301 299 298 303 309 312 312 312 316 320 317 309 319 330 327 319 319 326 335 339 340 341 339 334 331 333 334 331 328 327 328 328 326 326 329 329 329 333 337 336 337 336 332 337 350 354 359 17 39 47 50 52 48 47 54 66 66 40 31
222 235 214 209 244 233 211 215 258 279 276 287 305 304 280 258 273 287 281 282 282 273 262 256 267 286 299 299 298 303 308 312 313 310 309 313 313 306 308 318 316 312 314 323 335 342 344 344 344 343 342 342 343 343 340 337 336 337 336 332 328 329 329 330 334 336 337 340 340 335 344 355 358 8 37 55 54 55 57 56 58 60 62 63 60 57